Location: Camp at the Woods
(43.2055°N, 93.0905°W)
Time: 01:37:01
(UTC+00:00)

Cosmos 2227 Rocket - Pass Details

Date: 29 May 2025
Orbit: 837 x 844 km, 71.0° (Epoch: 12 June)

Event Time Altitude Azimuth Distance (km) Brightness Sun altitude
Exits shadow 08:46:09 - 270° (W) 2,629 4.4 -15.8°
Reaches altitude 10° 08:46:53 10° 276° (W) 2,455 4.3 -15.8°
Maximum altitude 08:50:21 16° 315° (NW) 2,041 4.3 -15.4°
Drops below altitude 10° 08:53:51 10° 353° (N) 2,465 5.3 -15.0°
Sets 08:57:18 0° 14° (NNE) 3,406 6.6 -14.6°
